Weather Roundup
Issued by NWS Chicago, IL

Home | Current Version | Previous Version | Text Only | Print | Product List | Glossary On
Versions: 1 2 3 4 5 6 7 8 9 10 11 12 13 14 15 16 17 18 19 20 21 22 23 24 25 26 27 28 29 30 31 32 33 34 35 36 37 38 39 40 41 42 43 44 45 46 47 48 49 50
000
NZUS59 KLOT 221810
HRRLOT

CHICAGO AREA WEATHER ROUNDUP
NATIONAL WEATHER SERVICE CHICAGO/ROMEOVILLE IL
100 PM CDT FRI AUG 22 2014

NOTE: "FAIR" INDICATES FEW OR NO CLOUDS BELOW 12,000 FEET WITH NO
SIGNIFICANT WEATHER AND/OR OBSTRUCTIONS TO VISIBILITY.

* THESE STATIONS ARE NOT UNDER NWS QUALITY CONTROL. THEY ALSO MAY NOT
  REPORT WEATHER SUCH AS PRECIPITATION OR FOG.

ILZ005-006-012>014-019>023-221900-
NORTHEAST ILLINOIS

CITY           SKY/WX    TMP DP  RH WIND       PRES   REMARKS
OHARE          CLOUDY    81  73  76 W5        29.94F HX  86
6HR MIN TEMP:  74; 6HR MAX TEMP:  81;

MIDWAY         CLOUDY    82  73  74 W9        29.95F HX  87
6HR MIN TEMP:  75; 6HR MAX TEMP:  83;

AURORA         CLOUDY    80  69  69 W13G21    29.95F HX  83
6HR MIN TEMP:  75; 6HR MAX TEMP:  80;

LANSING*       CLOUDY    81  73  76 W8        29.96F HX  85
JOLIET*        CLOUDY    80  69  70 SW5       29.96F HX  83
WAUKEGAN       CLOUDY    77  72  84 E6        29.95F
6HR MIN TEMP:  71; 6HR MAX TEMP:  77;

DUPAGE AIRPORT CLOUDY    83  69  62 SW14      29.95F HX  86
6HR MIN TEMP:  74; 6HR MAX TEMP:  83;

WHEELING       CLOUDY    84  74  71 N5        29.95F HX  91
6HR MIN TEMP:  74; 6HR MAX TEMP:  84;

KANKAKEE*      CLOUDY    78  73  85 W6        29.99R
MORRIS*        CLOUDY    79  72  79 SW6       29.96S HX  82
LEWIS AIRPORT* CLOUDY    80  69  70 W5        29.96F HX  83
NORTHERLY IS     N/A     81  71  71 NW5         N/A  HX  85
$$

WIZ051-052-058>065-066-070>072-221900-
SOUTHEAST WISCONSIN

CITY           SKY/WX    TMP DP  RH WIND       PRES   REMARKS
MILWAUKEE      CLOUDY    76  71  85 SE7       29.96S
6HR MIN TEMP:  71; 6HR MAX TEMP:  76;

KENOSHA*       PTSUNNY   79  74  84 NE7       29.96F HX  82
RACINE*        CLOUDY    79  72  79 SE6       29.97F HX  82
BURLINGTON     PTSUNNY   79  73  82 CALM      29.95F HX  82
WAUKESHA       CLOUDY    81  73  78 E6        29.97S HX  85
WEST BEND      MOSUNNY   79  70  73 E5        29.96F HX  81
$$

INZ001>003-010>013-019-020-221900-
NORTHWEST INDIANA

CITY           SKY/WX    TMP DP  RH WIND       PRES   REMARKS
GARY*          NOT AVBL
MICHIGAN CITY* NOT AVBL
RENSSELAER*    NOT AVBL
VALPARAISO     CLOUDY    78  73  84 SW9       29.98S HX  81
$$

LMZ740>746-221900-
SOUTHERN LAKE MICHIGAN

STATION/POSITION TIME  SKY/WX   TEMP WIND        PRES    VSBY
                                AIR  DIR/SP/G
                 (UTC)          (F)  (DEG/KT/KT) (MB)    (MI)
HARRISON CRIB    1800            79  250/  9/ 12   N/A
BURNHAM HARBOR   1800            81  260/ 10/ 11   N/A
CALUMET HARBOR   1800            82  310/  3/  8 1012.8F
BURNS HARBOR     NOT AVBL
MICHIGAN CITY    1800            76  230/  6/  7   N/A
$$

ABBREVIATIONS USED IN REMARKS
   TC - TEMPERATURE IN CELSIUS
  WCI - WIND CHILL INDEX
   HX - HEAT INDEX
  VSB - VISIBILITY
$$


USA.gov is the U.S. government's official web portal to all federal, state and local government web resources and services.